TimeCDT,TemperatureF,Dew PointF,Humidity,Sea Level PressureIn,VisibilityMPH,Wind Direction,Wind SpeedMPH,Gust SpeedMPH,PrecipitationIn,Events,Conditions,WindDirDegrees,DateUTC
12:15 AM,78.8,64.4,61,29.73,10.0,SSE,16.1,23.0,N/A,,Clear,160,2013-08-24 05:15:00
12:35 AM,77.0,66.2,69,29.73,10.0,SSE,15.0,-,N/A,,Clear,150,2013-08-24 05:35:00
12:55 AM,77.0,66.2,69,29.73,10.0,SSE,12.7,19.6,N/A,,Clear,150,2013-08-24 05:55:00
1:15 AM,77.0,66.2,69,29.73,10.0,SSE,13.8,18.4,N/A,,Clear,160,2013-08-24 06:15:00
1:35 AM,77.0,66.2,69,29.72,10.0,SSE,12.7,19.6,N/A,,Clear,160,2013-08-24 06:35:00
1:55 AM,75.2,66.2,73,29.72,10.0,Calm,Calm,-,N/A,,Clear,0,2013-08-24 06:55:00
2:15 AM,73.4,66.2,78,29.72,10.0,South,3.5,-,N/A,,Clear,170,2013-08-24 07:15:00
2:35 AM,73.4,66.2,78,29.73,10.0,SW,4.6,-,N/A,,Clear,230,2013-08-24 07:35:00
2:55 AM,73.4,66.2,78,29.72,10.0,Calm,Calm,-,N/A,,Clear,0,2013-08-24 07:55:00
3:15 AM,71.6,66.2,83,29.72,10.0,Calm,Calm,-,N/A,,Clear,0,2013-08-24 08:15:00
3:35 AM,71.6,66.2,83,29.71,10.0,NNE,3.5,-,N/A,,Clear,20,2013-08-24 08:35:00
3:55 AM,71.6,66.2,83,29.72,10.0,SSE,8.1,-,N/A,,Clear,160,2013-08-24 08:55:00
4:15 AM,73.4,66.2,78,29.74,10.0,South,6.9,-,N/A,,Clear,180,2013-08-24 09:15:00
4:35 AM,73.4,66.2,78,29.74,10.0,South,4.6,-,N/A,,Clear,180,2013-08-24 09:35:00
4:55 AM,71.6,66.2,83,29.73,10.0,South,4.6,-,N/A,,Clear,190,2013-08-24 09:55:00
5:15 AM,71.6,66.2,83,29.74,10.0,SW,3.5,-,N/A,,Clear,220,2013-08-24 10:15:00
5:35 AM,69.8,66.2,88,29.74,10.0,SW,3.5,-,N/A,,Clear,220,2013-08-24 10:35:00
5:55 AM,69.8,66.2,88,29.73,10.0,WSW,4.6,-,N/A,Thunderstorm,Clear,240,2013-08-24 10:55:00
6:15 AM,71.6,66.2,83,29.73,10.0,WSW,4.6,-,N/A,,Clear,240,2013-08-24 11:15:00
6:35 AM,71.6,64.4,78,29.73,10.0,WSW,5.8,-,N/A,,Clear,240,2013-08-24 11:35:00
6:55 AM,71.6,62.6,73,29.74,10.0,WSW,8.1,-,N/A,,Scattered Clouds,240,2013-08-24 11:55:00
7:15 AM,73.4,59.0,61,29.75,10.0,South,4.6,-,N/A,Thunderstorm,Thunderstorm,170,2013-08-24 12:15:00
7:35 AM,71.6,60.8,69,29.76,10.0,SSE,3.5,-,N/A,Rain-Thunderstorm,Light Thunderstorms and Rain,150,2013-08-24 12:35:00
7:55 AM,68.0,64.4,88,29.75,10.0,Calm,Calm,-,N/A,Rain-Thunderstorm,Light Rain,0,2013-08-24 12:55:00
8:15 AM,68.0,64.4,88,29.74,10.0,Calm,Calm,-,N/A,,Clear,0,2013-08-24 13:15:00
8:35 AM,71.6,64.4,78,29.74,10.0,Calm,Calm,-,N/A,Thunderstorm,Clear,0,2013-08-24 13:35:00
8:55 AM,73.4,64.4,73,29.73,10.0,North,5.8,-,N/A,,Clear,360,2013-08-24 13:55:00
9:15 AM,73.4,62.6,69,29.74,10.0,Calm,Calm,-,N/A,,Clear,0,2013-08-24 14:15:00
9:35 AM,73.4,64.4,73,29.75,10.0,NNW,3.5,-,N/A,Thunderstorm,Partly Cloudy,330,2013-08-24 14:35:00
9:55 AM,73.4,62.6,69,29.75,10.0,NNW,4.6,-,N/A,Thunderstorm,Mostly Cloudy,340,2013-08-24 14:55:00
10:15 AM,73.4,62.6,69,29.76,10.0,Calm,Calm,-,N/A,,Mostly Cloudy,0,2013-08-24 15:15:00
10:35 AM,73.4,64.4,73,29.77,10.0,Calm,Calm,-,N/A,Thunderstorm,Scattered Clouds,0,2013-08-24 15:35:00
10:55 AM,73.4,62.6,69,29.77,10.0,SSW,4.6,-,N/A,Thunderstorm,Scattered Clouds,200,2013-08-24 15:55:00
11:15 AM,75.2,62.6,65,29.78,10.0,South,4.6,-,N/A,,Partly Cloudy,170,2013-08-24 16:15:00
11:35 AM,75.2,62.6,65,29.80,10.0,SW,8.1,-,N/A,,Partly Cloudy,220,2013-08-24 16:35:00
11:55 AM,75.2,64.4,69,29.79,10.0,SSW,5.8,-,N/A,Rain,Light Rain,210,2013-08-24 16:55:00
12:15 PM,77.0,62.6,61,29.79,10.0,West,6.9,-,N/A,,Clear,260,2013-08-24 17:15:00
12:35 PM,78.8,60.8,54,29.80,10.0,WSW,6.9,-,N/A,,Clear,250,2013-08-24 17:35:00
12:55 PM,80.6,59.0,48,29.80,10.0,WSW,3.5,-,N/A,,Clear,250,2013-08-24 17:55:00
1:15 PM,82.4,59.0,45,29.79,10.0,North,3.5,-,N/A,,Clear,350,2013-08-24 18:15:00
1:35 PM,82.4,59.0,45,29.79,10.0,Calm,Calm,-,N/A,,Clear,0,2013-08-24 18:35:00
1:55 PM,84.2,59.0,42,29.78,10.0,SW,4.6,-,N/A,,Clear,220,2013-08-24 18:55:00
2:15 PM,86.0,59.0,40,29.78,10.0,SE,4.6,-,N/A,,Clear,140,2013-08-24 19:15:00
2:35 PM,86.0,59.0,40,29.78,10.0,SW,4.6,-,N/A,,Clear,220,2013-08-24 19:35:00
2:55 PM,87.8,57.2,35,29.78,10.0,SSW,3.5,-,N/A,,Clear,210,2013-08-24 19:55:00
3:15 PM,87.8,57.2,35,29.78,10.0,West,6.9,-,N/A,,Clear,260,2013-08-24 20:15:00
3:35 PM,89.6,57.2,33,29.77,10.0,West,6.9,-,N/A,,Clear,270,2013-08-24 20:35:00
3:55 PM,89.6,57.2,33,29.77,10.0,WSW,6.9,-,N/A,,Clear,240,2013-08-24 20:55:00
4:15 PM,91.4,55.4,29,29.77,10.0,WNW,6.9,-,N/A,,Clear,290,2013-08-24 21:15:00
4:35 PM,91.4,53.6,28,29.77,10.0,NW,6.9,-,N/A,,Clear,310,2013-08-24 21:35:00
4:55 PM,91.4,55.4,29,29.77,10.0,West,9.2,-,N/A,,Clear,270,2013-08-24 21:55:00
5:15 PM,91.4,53.6,28,29.77,10.0,West,10.4,-,N/A,,Clear,260,2013-08-24 22:15:00
5:35 PM,91.4,55.4,29,29.77,10.0,WNW,11.5,17.3,N/A,,Clear,290,2013-08-24 22:35:00
5:55 PM,89.6,53.6,29,29.78,10.0,WNW,9.2,-,N/A,,Clear,290,2013-08-24 22:55:00
6:15 PM,89.6,55.4,31,29.79,10.0,WNW,11.5,-,N/A,,Clear,290,2013-08-24 23:15:00
6:35 PM,86.0,53.6,33,29.79,10.0,WNW,12.7,18.4,N/A,,Clear,290,2013-08-24 23:35:00
6:55 PM,84.2,55.4,37,29.80,10.0,West,9.2,16.1,N/A,,Clear,280,2013-08-24 23:55:00
7:15 PM,82.4,55.4,39,29.80,10.0,WNW,8.1,-,N/A,,Clear,300,2013-08-25 00:15:00
7:35 PM,82.4,55.4,39,29.80,10.0,WNW,6.9,-,N/A,,Partly Cloudy,290,2013-08-25 00:35:00
7:55 PM,80.6,55.4,42,29.80,10.0,West,6.9,-,N/A,,Partly Cloudy,280,2013-08-25 00:55:00
8:15 PM,78.8,55.4,44,29.80,10.0,West,5.8,-,N/A,,Partly Cloudy,260,2013-08-25 01:15:00
8:35 PM,77.0,57.2,50,29.80,10.0,SW,4.6,-,N/A,,Clear,220,2013-08-25 01:35:00
8:55 PM,75.2,55.4,50,29.81,10.0,SW,6.9,-,N/A,,Clear,220,2013-08-25 01:55:00
9:15 PM,73.4,55.4,53,29.82,10.0,SSW,4.6,-,N/A,,Clear,210,2013-08-25 02:15:00
9:35 PM,71.6,55.4,57,29.82,10.0,SSW,5.8,-,N/A,,Clear,210,2013-08-25 02:35:00
9:55 PM,68.0,55.4,64,29.83,10.0,SW,4.6,-,N/A,,Clear,220,2013-08-25 02:55:00
10:15 PM,66.2,55.4,68,29.84,10.0,Calm,Calm,-,N/A,,Clear,0,2013-08-25 03:15:00
10:35 PM,66.2,55.4,68,29.85,10.0,SSW,5.8,-,N/A,,Clear,210,2013-08-25 03:35:00
10:55 PM,66.2,55.4,68,29.85,9.0,SW,4.6,-,N/A,,Clear,220,2013-08-25 03:55:00
11:15 PM,64.4,55.4,73,29.85,10.0,SSW,5.8,-,N/A,,Clear,210,2013-08-25 04:15:00
11:35 PM,64.4,55.4,73,29.86,10.0,SW,5.8,-,N/A,,Clear,220,2013-08-25 04:35:00
11:55 PM,64.4,55.4,73,29.85,10.0,Calm,Calm,-,N/A,,Clear,0,2013-08-25 04:55:00